• MPC Preparation (Info)

  • MPEC 2016-O132: 2014 GX53

    The following Minor Planet Electronic Circular may be linked-to from your own Web pages, but must not otherwise be redistributed electronically.

    A form allowing access to any MPEC is at the bottom of this page.


    Read MPEC 2016-O131 Read MPEC 2016-O133


    M.P.E.C. 2016-O132                               Issued 2016 July 17, 07:31 UT
    
         The Minor Planet Electronic Circulars contain information on unusual
             minor planets and routine data on comets.  They are published
        on behalf of Division F of the International Astronomical Union by the
              Minor Planet Center, Smithsonian Astrophysical Observatory,
                              Cambridge, MA 02138, U.S.A.
    
                 Prepared using the Tamkin Foundation Computer Network
    
                                  MPC@CFA.HARVARD.EDU
                URL https://www.minorplanetcenter.net/    ISSN 1523-6714
    
                                       2014 GX53
    
    Observations:
         K14G53X  C2012 04 27.48809 14 08 30.314+01 44 48.06         20.6 rLEO132F51
         K14G53X  C2012 04 27.49843 14 08 30.260+01 44 48.41         20.5 rLEO132F51
         K14G53X  C2012 04 27.51087 14 08 30.192+01 44 48.66         20.2 iLEO132F51
         K14G53X  C2012 04 27.52220 14 08 30.128+01 44 48.92         20.3 iLEO132F51
         K14G53X  C2013 04 22.38482 14 15 45.806+00 53 26.36         20.4 iLEO132F51
         K14G53X  C2013 04 22.39668 14 15 45.750+00 53 26.62         20.4 iLEO132F51
         K14G53X  C2013 04 22.46533 14 15 45.379+00 53 28.54         20.5 rLEO132F51
         K14G53X* C2014 04 05.43147 14 24 02.332-00 04 19.05         20.8 wLEO132F51
         K14G53X  C2014 04 05.44370 14 24 02.270-00 04 18.70         20.7 wLEO132F51
         K14G53X  C2014 04 05.45597 14 24 02.207-00 04 18.25         20.7 wLEO132F51
         K14G53X  C2014 04 05.46823 14 24 02.149-00 04 17.96         20.7 wLEO132F51
         K14G53X  C2014 05 05.40269 14 21 25.261+00 09 21.09         20.8 wLEO132F51
         K14G53X  C2014 05 05.41566 14 21 25.191+00 09 21.34         20.9 wLEO132F51
         K14G53X  C2014 05 05.42861 14 21 25.128+00 09 21.52         20.8 wLEO132F51
         K14G53X  C2014 05 05.44154 14 21 25.045+00 09 21.87         20.8 wLEO132F51
         K14G53X  C2014 05 16.36265 14 20 28.171+00 12 43.33         20.3 iLEO132F51
         K14G53X  C2014 05 16.37495 14 20 28.097+00 12 43.55         20.3 iLEO132F51
         K14G53X  C2014 05 16.38725 14 20 28.033+00 12 43.78         20.2 iLEO132F51
         K14G53X  C2014 05 16.39955 14 20 27.973+00 12 43.91         20.2 iLEO132F51
         K14G53X  C2014 05 17.44396 14 20 22.711+00 12 59.74         20.7 iLEO132F51
         K14G53X  C2014 05 17.45598 14 20 22.649+00 12 59.94         20.6 iLEO132F51
         K14G53X  C2014 05 17.48004 14 20 22.530+00 13 00.29         20.6 iLEO132F51
         K14G53X  C2014 05 21.38654 14 20 03.250+00 13 53.51         20.7 wLEO132F51
         K14G53X  C2014 05 21.39857 14 20 03.190+00 13 53.63         20.7 wLEO132F51
         K14G53X  C2014 05 21.41056 14 20 03.131+00 13 53.77         20.7 wLEO132F51
         K14G53X  C2014 05 21.42255 14 20 03.072+00 13 53.93         20.7 wLEO132F51
         K14G53X  C2015 01 28.61708 14 33 07.756-01 23 55.22         21.0 wLEO132F51
         K14G53X  C2015 01 28.62934 14 33 07.772-01 23 55.01         21.0 wLEO132F51
         K14G53X  C2015 01 28.64160 14 33 07.788-01 23 54.87         21.0 wLEO132F51
         K14G53X  C2015 01 28.65389 14 33 07.806-01 23 54.67         21.1 wLEO132F51
         K14G53X  C2015 01 30.58730 14 33 10.349-01 23 25.29         20.9 wLEO132F51
         K14G53X  C2015 01 30.59939 14 33 10.364-01 23 25.02         21.0 wLEO132F51
         K14G53X  C2015 01 30.61147 14 33 10.374-01 23 24.93         21.0 wLEO132F51
         K14G53X  C2015 01 30.62358 14 33 10.390-01 23 24.68         20.9 wLEO132F51
         K14G53X  C2015 02 23.60093 14 33 07.062-01 14 42.42         20.8 wLEO132F51
         K14G53X  C2015 02 23.61398 14 33 07.040-01 14 42.03         20.8 wLEO132F51
         K14G53X  C2015 02 23.62701 14 33 07.020-01 14 41.69         20.7 wLEO132F51
         K14G53X  C2015 02 23.64005 14 33 07.002-01 14 41.36         20.8 wLEO132F51
         K14G53X  C2015 02 24.58883 14 33 05.576-01 14 15.62         20.8 wLEO132F51
         K14G53X  C2015 02 24.60184 14 33 05.554-01 14 15.27         20.9 wLEO132F51
         K14G53X  C2015 02 24.61487 14 33 05.534-01 14 14.88         20.9 wLEO132F51
         K14G53X  C2015 02 24.62791 14 33 05.514-01 14 14.56         20.9 wLEO132F51
         K14G53X  C2015 03 20.55318 14 32 00.473-01 02 11.45         20.8 wLEO132F51
         K14G53X  C2015 03 20.56629 14 32 00.419-01 02 11.02         20.8 wLEO132F51
         K14G53X  C2015 03 20.57941 14 32 00.370-01 02 10.62         20.8 wLEO132F51
         K14G53X  C2015 04 20.43955 14 29 35.986-00 46 18.76         21.2 wLEO132F51
         K14G53X  C2015 04 20.45217 14 29 35.923-00 46 18.48         20.9 wLEO132F51
         K14G53X  C2015 04 20.46486 14 29 35.852-00 46 18.01         20.9 wLEO132F51
         K14G53X  C2015 04 20.47754 14 29 35.778-00 46 17.65         21.0 wLEO132F51
         K14G53X  C2015 04 21.46237 14 29 30.551-00 45 50.45         21.1 wLEO132F51
         K14G53X  C2015 04 21.51304 14 29 30.279-00 45 49.08         21.2 wLEO132F51
         K14G53X  C2015 04 21.52597 14 29 30.210-00 45 48.83         21.2 wLEO132F51
         K14G53X  C2015 04 21.53892 14 29 30.146-00 45 48.42         20.8 wLEO132F51
         K14G53X  C2015 05 25.32463 14 26 33.301-00 34 37.11         20.6 iLEO132F51
         K14G53X  C2015 05 25.33755 14 26 33.239-00 34 36.94         20.5 iLEO132F51
         K14G53X  C2015 05 25.35043 14 26 33.172-00 34 36.83         20.5 iLEO132F51
         K14G53X  C2015 05 25.36332 14 26 33.113-00 34 36.64         20.5 iLEO132F51
         K14G53X  C2015 05 26.32086 14 26 28.562-00 34 26.62         20.3 iLEO132F51
         K14G53X  C2015 05 26.33372 14 26 28.501-00 34 26.45         20.3 iLEO132F51
         K14G53X  C2015 05 26.34661 14 26 28.431-00 34 26.37         20.3 iLEO132F51
         K14G53X  C2015 05 26.35957 14 26 28.365-00 34 26.19         20.2 iLEO132F51
         K14G53X  C2015 06 22.32887 14 24 43.894-00 33 44.36         20.7 iLEO132F51
         K14G53X  C2015 06 22.34212 14 24 43.860-00 33 44.50         20.6 iLEO132F51
         K14G53X  C2015 06 22.35534 14 24 43.809-00 33 44.53         20.7 iLEO132F51
         K14G53X  C2015 06 22.36868 14 24 43.777-00 33 44.64         20.7 iLEO132F51
         K14G53X  C2015 07 01.28241 14 24 22.023-00 35 16.81         20.5 iLEO132F51
         K14G53X  C2015 07 01.29614 14 24 21.991-00 35 16.88         20.5 iLEO132F51
         K14G53X  C2015 07 01.30897 14 24 21.969-00 35 17.08         20.4 iLEO132F51
         K14G53X  C2015 07 01.32174 14 24 21.939-00 35 17.38         20.5 iLEO132F51
         K14G53X  C2015 07 02.27521 14 24 20.053-00 35 30.36         20.6 iLEO132F51
         K14G53X  C2015 07 02.28817 14 24 20.029-00 35 30.54         20.6 iLEO132F51
         K14G53X  C2015 07 02.30201 14 24 20.003-00 35 30.61         20.7 iLEO132F51
         K14G53X  C2015 07 02.31494 14 24 19.981-00 35 30.74         20.5 iLEO132F51
    
    Observer details:
    F51 Pan-STARRS 1, Haleakala.  Observers B. Gibson, T. Goggia, N. Primak,
        A. Schultz, M. Willman.  Measurers K. Chambers, S. Chastel, Y.-T. Chen,
        L. Denneau, H. Flewelling, M. Holman, M. Huber, R. Jedicke, M. Lackner,
        E. Lilly, H.-W. Lin, E. Magnier, M. Micheli, M. Payne, P. Veres,
        R. Wainscoat, C. Waters, R. Weryk.  1.8-m Ritchey-Chretien + CCD.
    
    Orbital elements:
    2014 GX53
    Epoch 2016 July 31.0 TT = JDT 2457600.5                 MPC
    M 353.15822              (2000.0)            P               Q
    n   0.00375593     Peri.  128.84388     -0.67017337     +0.69928995
    a  40.9880782      Node    97.14117     -0.73463747     -0.57725562
    e   0.1444338      Incl.   14.51678     -0.10571399     -0.42162723
    P 262              H    5.2           G   0.15           U   2
    Residuals in seconds of arc
    120427 F51  0.0   0.0     140521 F51  0.1-  0.0     150421 F51  0.1-  0.0
    120427 F51  0.0   0.1+    150128 F51  0.1+  0.1+    150421 F51  0.1-  0.1-
    120427 F51  0.0   0.0     150128 F51  0.1+  0.2+    150421 F51  0.0   0.1-
    120427 F51  0.0   0.0     150128 F51  0.1+  0.1+    150525 F51  0.0   0.1-
    130422 F51  0.0   0.0     150128 F51  0.1+  0.1+    150525 F51  0.0   0.0
    130422 F51  0.1+  0.1-    150130 F51  0.1+  0.1+    150525 F51  0.0   0.1-
    130422 F51  0.2+  0.0     150130 F51  0.1+  0.2+    150525 F51  0.0   0.0
    140405 F51  0.0   0.1-    150130 F51  0.1+  0.1+    150526 F51  0.0   0.1-
    140405 F51  0.0   0.1-    150130 F51  0.1+  0.1+    150526 F51  0.0   0.0
    140405 F51  0.0   0.1-    150223 F51  0.0   0.1+    150526 F51  0.1-  0.1-
    140405 F51  0.0   0.2-    150223 F51  0.0   0.1+    150526 F51  0.2-  0.0
    140505 F51  0.0   0.0     150223 F51  0.0   0.1+    150622 F51  0.0   0.0
    140505 F51  0.1+  0.1-    150223 F51  0.0   0.1+    150622 F51  0.1+  0.0
    140505 F51  0.2+  0.1-    150224 F51  0.0   0.1+    150622 F51  0.1-  0.0
    140505 F51  0.0   0.1-    150224 F51  0.0   0.1+    150622 F51  0.0   0.0
    140516 F51  0.0   0.1-    150224 F51  0.1+  0.2+    150701 F51  0.1+  0.1-
    140516 F51  0.1-  0.0     150224 F51  0.1+  0.1+    150701 F51  0.0   0.0
    140516 F51  0.1-  0.0     150320 F51  0.0   0.0     150701 F51  0.1+  0.0
    140516 F51  0.1-  0.0     150320 F51  0.0   0.0     150701 F51  0.0   0.1-
    140517 F51  0.1-  0.0     150320 F51  0.0   0.0     150702 F51  0.0   0.2-
    140517 F51  0.1-  0.0     150420 F51  0.1-  0.1-    150702 F51  0.1+  0.2-
    140517 F51  0.1-  0.0     150420 F51  0.0   0.2-    150702 F51  0.1+  0.0
    140521 F51  0.1-  0.0     150420 F51  0.1-  0.1-    150702 F51  0.1+  0.0
    140521 F51  0.1-  0.0     150420 F51  0.2-  0.1-
    140521 F51  0.1-  0.0     150421 F51  0.2-  0.0
    
    Ephemeris:
    2014 GX53                a,e,i = 40.99, 0.14, 15                 q = 35.068
    Date    TT    R. A. (2000) Decl.     Delta      r     Elong.  Phase     V
    2016 06 17    14 31 44.0 -01 22 15  34.4826 35.1283   128.8     1.3    20.8
    ...
    2016 07 02    14 31 02.8 -01 24 17  34.6876 35.1274   114.9     1.5    20.8
    ...
    2016 07 10    14 30 49.3 -01 26 21  34.8091 35.1269   107.4     1.6    20.8
    ...
    2016 07 16    14 30 43.5 -01 28 20  34.9039 35.1265   101.8     1.6    20.9
    2016 07 17    14 30 42.9 -01 28 42  34.9199 35.1264   100.9     1.6    20.9
    2016 07 18    14 30 42.4 -01 29 04  34.9360 35.1264   100.0     1.6    20.9
    ...
    2016 07 24    14 30 41.5 -01 31 31  35.0333 35.1260    94.4     1.7    20.9
    ...
    2016 08 01    14 30 46.2 -01 35 17  35.1643 35.1255    87.0     1.7    20.9
    ...
    2016 08 16    14 31 13.2 -01 43 43  35.4055 35.1245    73.1     1.6    20.9
    
    A. U. Tomatic                (C) Copyright 2016 MPC           M.P.E.C. 2016-O132
    

    Read MPEC 2016-O131 Read MPEC 2016-O133


    MPEC number:

    Enter an MPEC number in one of the following forms:

    • 1997-B01 (the full form)
    • J97B01 (the packed version of the full form)
    • B01 (the abbreviated form)